Regional Weather Roundup
Issued by NWS

Home | Current Version | Previous Version | Text Only | Print | Product List | Glossary Off
Versions: 1 2 3 4 5 6 7 8 9 10 11 12 13 14 15 16 17 18 19 20 21 22 23 24 25 26 27 28 29 30 31 32 33 34 35 36 37 38 39 40 41 42 43 44 45 46 47 48 49 50

090
ASUS45 KTFX 240810
RWRMT
MONTANA REGIONAL WEATHER ROUNDUP
NATIONAL WEATHER SERVICE GREAT FALLS MT
200 AM MDT SAT SEP 24 2016

NOTE: "FAIR" INDICATES FEW OR NO CLOUDS BELOW 12000 FEET WITH NO
SIGNIFICANT WEATHER AND/OR OBSTRUCTIONS TO VISIBILITY.

MTZ001>007-043-240900-
WEST OF THE DIVIDE

CITY           SKY/WX    TMP DP  RH WIND       PRES   REMARKS
KALISPELL      LGT RAIN  50  46  86 CALM      30.06R
MISSOULA       CLOUDY    52  41  66 NW12      30.08R
BUTTE          CLOUDY    40  35  83 CALM      30.07R
MULLAN PASS    LGT RAIN  36  35  96 NW5       30.14R VSB 1/4
ANACONDA         N/A     45  36  70 NE5       30.05R
DEER LODGE       N/A     45  39  81 NE3       30.07R
EUREKA           N/A     54  37  54 SE3       30.05R
HAMILTON         N/A     52  43  71 CALM      30.07R
LIBBY            N/A     48  43  81 CALM      30.09R
PLAINS           N/A     53  39  59 CALM      30.11R
RONAN            N/A     53  38  56 S1        30.13R
THOMPSON FALLS   N/A     52  40  63 W8        30.17R
$$

MTZ008-052>055-240900-
SOUTHWEST MONTANA

CITY           SKY/WX    TMP DP  RH WIND       PRES   REMARKS
BOZEMAN        CLOUDY    47  42  83 W6        30.01S
DILLON           N/A     47  36  65 SE10      30.04R
W YELLOWSTONE  CLOUDY    43  41  93 S8        30.01S
ENNIS          CLOUDY    48  41  76 NW7       30.07S
THREE FORKS      N/A     45  23  42 CALM      30.01R
TWIN BRIDGES     N/A     44  36  73 E5        30.03R
$$

MTZ009-010-012-014-046-048-049-054-240900-
EAST SLOPES AND CENTRAL MONTANA

CITY           SKY/WX    TMP DP  RH WIND       PRES   REMARKS
CUT BANK       PTCLDY    49  38  65 W17       29.92R
GREAT FALLS    MOCLDY    44  39  82 SW9       29.93R
MALMSTROM AFB  MOCLDY    45  40  85 S8        29.94R
HELENA         CLEAR     50  38  63 S8        29.99R
AUGUSTA          N/A     47  37  68 W10       29.92F
BOWMANS CRNR     N/A     44  37  74 W15       29.92F
CHOTEAU          N/A     48  37  66 W5G12     29.93S
CONRAD           N/A     39  39 100 S3        29.93F
FAIRFIELD        N/A     43  36  76 W8        29.90F
POWER            N/A     38  36  91 W6        29.90F
RAYNESFORD       N/A     52  38  59 SW12      29.95R
$$

MTZ011-013-016-021-045-047-050-051-240900-
NORTH CENTRAL MONTANA

CITY           SKY/WX    TMP DP  RH WIND       PRES   REMARKS
HAVRE          CLOUDY    48  45  89 W6        29.87S
LEWISTOWN      PTCLDY    47  43  86 W10       29.94R
N BAR RANCH    CLOUDY    50  43  76 W8        29.95S
CHINOOK          N/A     45  45 100 CALM      29.86S
DENTON           N/A     45  42  87 W10       29.90R
GEYSER           N/A     47  37  68 W10       29.92F
GRASS RANGE    CLOUDY    50  46  85 W8        29.89R
JUDITH GAP     PTSUNNY   46  42  86 MISG      29.95R
ROY            CLOUDY    50  46  86 MISG      29.89R
STANFORD         N/A     47  39  74 W10       29.94F
WINIFRED       PTSUNNY   48  44  87 MISG      29.92R
$$

MTZ017>020-022>027-061-062-240900-
NORTHEAST MONTANA

CITY           SKY/WX    TMP DP  RH WIND       PRES   REMARKS
GLASGOW        FOG       44  44 100 S8        29.87R VSB 1/4
JORDAN           N/A     48  45  89 CALM      29.89R
SIDNEY         CLOUDY    55  53  93 W10       29.80F
WOLF POINT     CLOUDY    54  52  93 NW9       29.85S
PLENTYWOOD       N/A     54  54 100 W3        29.83F VSB 1/4
POPLAR           N/A     54  54 100 W7        29.85R
SCOBEY           N/A     51  47  86 E3        29.85S
$$

MTZ028>42-056>058-240900-
SOUTHCENTRAL AND SOUTHEAST MONTANA

CITY           SKY/WX    TMP DP  RH WIND       PRES   REMARKS
BAKER          FOG       53  52  96 NW14      29.83R VSB 1
BILLINGS       CLOUDY    54  50  86 W12       29.89F
LIVINGSTON     CLOUDY    51  44  77 SW9       29.96F
MILES CITY     PTCLDY    52  49  89 NW6       29.86F
BIG TIMBER     CLOUDY    54  41  62 W18G24    29.96S
EKALAKA          N/A     51  49  93 NW7       29.84F
FORSYTH          N/A     52  52 100 SW3       29.88F
HARLOWTON      PTSUNNY   49  42  77 W12       29.96R
LAUREL           N/A     52  47  83 CALM      29.90F
ROUNDUP          N/A     52  47  83 SW5       29.82F
$$

REGIONAL REPORTS...DAKOTAS

CITY           SKY/WX    TMP DP  RH WIND       PRES   REMARKS
WILLISTON      CLOUDY    56  54  93 NW5       29.80F FOG
MINOT          LGT RAIN  59  58  96 E13       29.79F
DICKINSON      FOG       56  56 100 NW6       29.77R VSB 1/4
CROSBY         CLOUDY    54  54 100 E7        29.84F FOG
WATFORD CITY   MOCLDY    54  54 100 E3        29.81R
BISMARCK       CLOUDY    62  61  96 NE8       29.78F
GRAND FORKS    CLOUDY    58  56  93 E12       29.96F FOG
FARGO          CLOUDY    65  61  87 SE16G29   29.91F
BUFFALO SD       N/A     58  57  97 N12       29.73F
RAPID CITY     CLOUDY    58  56  93 CALM      29.77F
$$

REGIONAL REPORTS...WYOMING/IDAHO/WASHINGTON

CITY           SKY/WX    TMP DP  RH WIND       PRES   REMARKS
GILLETTE       RAIN      49  49 100 W8        29.89R FOG
SHERIDAN       RAIN      50  49  96 SW5       29.90R FOG
BUFFALO WY     RAIN      49  46  90 N5        29.92S FOG
CODY           CLOUDY    46  45  93 CALM      29.94F
YELLOWSTONE LA   N/A     39  38  96 NW9G23    29.99F
IDAHO FALLS    LGT RAIN  44  41  89 SW9       30.01S
SALMON         CLOUDY    45  39  81 CALM      30.07R
BOISE          CLOUDY    56  41  57 NW15G23   30.13R
SPOKANE        PTCLDY    50  43  77 S5        30.13R
$$

REGIONAL REPORTS...ALBERTA

CITY           SKY/WX    TMP DP  RH WIND       PRES   REMARKS
EDMONTON       PTCLDY    43  41  93 W2        29.80R
CALGARY        CLOUDY    48  36  61 CALM      29.86R
LETHBRIDGE     CLEAR     52  39  62 W21G26    29.87R
MEDICINE HAT   CLEAR     45  41  87 SW7       29.82R
WATERTON GATE    N/A     50  34  53 W18G30      N/A
CARDSTON         N/A     48  37  66 W6          N/A
MILK RIVER       N/A     46  39  76 W12         N/A
ONEFOUR          N/A     46  39  76 NW5         N/A
$$

REGIONAL REPORTS...SASKATCHEWAN

CITY           SKY/WX    TMP DP  RH WIND       PRES   REMARKS
SWIFT CURRENT  PTCLDY    43  43 100 SW8       29.83R
REGINA         CLOUDY    52  52 100 SE5       29.84F FOG
SASKATOON      CLOUDY    50  50 100 SE5       29.86R FOG
CYPRESS HILLS    N/A     45  39  81 W7          N/A
VAL MARIE        N/A     45  43  93 NW3         N/A
ROCKGLEN         N/A     48  48 100 NW3         N/A
ASSINIBOIA       N/A     37  37 100 S2          N/A
$$




USA.gov is the U.S. government's official web portal to all federal, state and local government web resources and services.